Weather History for KARV - November, 2012

Change the Weather History Date:

Saturday, November 10, 2012

  Actual Average Record
Temperature  
Mean Temperature 43 °F -  
Max Temperature 55 °F 38 °F 62 °F (1917)
Min Temperature 35 °F 23 °F 8 °F (1957)
Degree Days  
Heating Degree Days 22    
Moisture  
Dew Point 40 °F    
Average Humidity 92    
Maximum Humidity 100    
Minimum Humidity 81    
Precipitation  
Precipitation 0.06 in - - ()
Sea Level Pressure  
Sea Level Pressure 29.84 in    
Wind  
Wind Speed 9 mph (ESE)    
Max Wind Speed 17 mph    
Max Gust Speed 25 mph    
Visibility 5 miles    
Events Rain , Thunderstorm    
Averages and records for this station are not official NWS values.
T = Trace of Precipitation, MM = Missing Value Source: NWS Daily Summary

Daily Weather History Graph

Daily Weather History Graph

Search for Another Location

Airport or City:

Trip Planner

Search our weather history database for the weather conditions in past years. The results will help you decide how hot, cold, wet, or windy it might be!

Date:

Astronomy

Nov. 10, 2012 Rise Set
Actual Time 6:52 AM CST 4:32 PM CST
Civil Twilight 6:20 AM CST 5:04 PM CST
Nautical Twilight 5:44 AM CST 5:40 PM CST
Astronomical Twilight 5:09 AM CST 6:15 PM CST
Moon 2:47 AM CST (11/10) 2:28 PM CST (11/10)
Length of Visible Light 10h 43m
Length of Day
9h 39m
Waning Crescent, 14% of the Moon is Illuminated
Nov 10
Waning Crescent
Nov 13
New
Nov 20
First Quarter
Nov 28
Full
Dec 6
Last Quarter

Hourly Weather History & Observations

Time (CST) Temp. Windchill Dew Point Humidity Pressure Visibility Wind Dir Wind Speed Gust Speed Precip Events Conditions
12:15 AM 35.6 °F 29.9 °F 32.0 °F 87% 30.09 in 10.0 mi East 6.9 mph - N/A   Overcast
12:35 AM 35.6 °F 31.7 °F 32.0 °F 87% 30.09 in 10.0 mi East 4.6 mph - N/A   Overcast
12:55 AM 35.6 °F 29.9 °F 32.0 °F 87% 30.08 in 10.0 mi East 6.9 mph - N/A   Overcast
1:15 AM 35.6 °F 28.6 °F 32.0 °F 87% 30.07 in 10.0 mi East 9.2 mph - N/A   Overcast
1:35 AM 35.6 °F 28.6 °F 32.0 °F 87% 30.05 in 10.0 mi East 9.2 mph - N/A   Overcast
1:55 AM 35.6 °F 30.7 °F 32.0 °F 87% 30.05 in 10.0 mi East 5.8 mph 16.1 mph N/A   Overcast
2:15 AM 35.6 °F 30.7 °F 32.0 °F 87% 30.04 in 10.0 mi East 5.8 mph 16.1 mph N/A   Overcast
2:35 AM 35.6 °F 29.2 °F 32.0 °F 87% 30.04 in 10.0 mi ESE 8.1 mph - N/A   Overcast
2:55 AM 35.6 °F 29.9 °F 32.0 °F 87% 30.03 in 10.0 mi East 6.9 mph - N/A   Overcast
3:15 AM 35.6 °F 28.0 °F 32.0 °F 87% 30.00 in 10.0 mi ESE 10.4 mph - N/A   Overcast
3:36 AM 37.4 °F 32.8 °F 32.0 °F 81% 30.01 in 10.0 mi ESE 5.8 mph - N/A   Overcast
3:56 AM 37.4 °F 30.8 °F 33.8 °F 87% 30.01 in 10.0 mi East 9.2 mph - N/A   Overcast
4:15 AM 35.6 °F 29.2 °F 32.0 °F 87% 30.01 in 10.0 mi ESE 8.1 mph - N/A   Overcast
4:35 AM 35.6 °F 29.2 °F 32.0 °F 87% 30.00 in 10.0 mi East 8.1 mph - N/A   Overcast
4:55 AM 35.6 °F 28.6 °F 32.0 °F 87% 29.98 in 10.0 mi ESE 9.2 mph 18.4 mph N/A   Overcast
5:15 AM 35.6 °F 28.6 °F 32.0 °F 87% 29.99 in 10.0 mi ESE 9.2 mph - N/A   Overcast
5:35 AM 35.6 °F 28.0 °F 33.8 °F 93% 29.99 in 10.0 mi ESE 10.4 mph - N/A   Overcast
5:55 AM 35.6 °F 29.2 °F 33.8 °F 93% 29.99 in 10.0 mi ESE 8.1 mph - N/A   Overcast
6:35 AM 35.6 °F 29.2 °F 33.8 °F 93% 29.98 in 10.0 mi ESE 8.1 mph - N/A   Overcast
6:55 AM 35.6 °F 28.0 °F 33.8 °F 93% 29.96 in 10.0 mi East 10.4 mph - N/A   Light Drizzle
7:15 AM 35.6 °F 29.9 °F 33.8 °F 93% 29.96 in 5.0 mi ESE 6.9 mph 16.1 mph N/A Rain Rain
7:35 AM 35.6 °F 27.5 °F 33.8 °F 93% 29.95 in 4.0 mi ESE 11.5 mph - 0.03 in Rain Rain
7:55 AM 35.6 °F 25.5 °F 33.8 °F 93% 29.93 in 4.0 mi ESE 17.3 mph 25.3 mph 0.06 in Rain Light Rain
8:15 AM 37.4 °F 28.2 °F 35.6 °F 93% 29.92 in 10.0 mi ESE 16.1 mph 21.9 mph N/A   Overcast
8:35 AM 37.4 °F 29.8 °F 35.6 °F 93% 29.92 in 10.0 mi SE 11.5 mph 20.7 mph N/A Rain Light Rain
8:55 AM 37.4 °F 28.5 °F 35.6 °F 93% 29.91 in 7.0 mi ESE 15.0 mph 20.7 mph N/A   Overcast
9:15 AM 37.4 °F 28.5 °F 35.6 °F 93% 29.89 in 5.0 mi ESE 15.0 mph 20.7 mph N/A   Overcast
9:35 AM 37.4 °F 29.3 °F 35.6 °F 93% 29.87 in 1.8 mi ESE 12.7 mph 17.3 mph N/A Rain , Thunderstorm Light Thunderstorms and Rain
9:55 AM 41.0 °F 33.9 °F 39.2 °F 93% 29.87 in 2.0 mi SE 12.7 mph 18.4 mph N/A Rain Light Rain
10:15 AM 41.0 °F 34.3 °F 39.2 °F 93% 29.86 in 2.5 mi SE 11.5 mph 19.6 mph N/A   Drizzle
10:35 AM 41.0 °F 33.9 °F 39.2 °F 93% 29.86 in 2.5 mi ESE 12.7 mph 20.7 mph N/A   Overcast
10:55 AM 41.0 °F 32.8 °F 39.2 °F 93% 29.84 in 2.5 mi ESE 16.1 mph 20.7 mph N/A   Overcast
11:15 AM 41.0 °F 33.1 °F 39.2 °F 93% 29.81 in 2.0 mi ESE 15.0 mph 21.9 mph N/A   Overcast
11:35 AM 41.0 °F 33.9 °F 39.2 °F 93% 29.80 in 2.5 mi ESE 12.7 mph 21.9 mph N/A   Overcast
11:55 AM 42.8 °F 36.6 °F 41.0 °F 93% 29.79 in 2.0 mi ESE 11.5 mph 21.9 mph N/A   Overcast
12:15 PM 42.8 °F 36.2 °F 41.0 °F 93% 29.78 in 1.8 mi SE 12.7 mph 19.6 mph N/A   Overcast
12:35 PM 42.8 °F 36.2 °F 41.0 °F 93% 29.77 in 1.5 mi ESE 12.7 mph 19.6 mph N/A   Overcast
12:55 PM 42.8 °F 37.0 °F 41.0 °F 93% 29.76 in 1.2 mi ESE 10.4 mph - N/A   Overcast
1:15 PM 42.8 °F 37.5 °F 41.0 °F 93% 29.75 in 1.2 mi SE 9.2 mph 17.3 mph N/A   Overcast
1:35 PM 42.8 °F 37.0 °F 42.8 °F 100% 29.74 in 0.8 mi SE 10.4 mph 18.4 mph N/A   Overcast
1:55 PM 42.8 °F 37.5 °F 42.8 °F 100% 29.73 in 1.0 mi SE 9.2 mph 17.3 mph N/A   Light Drizzle
2:15 PM 42.8 °F 37.0 °F 42.8 °F 100% 29.72 in 1.0 mi SE 10.4 mph 19.6 mph N/A Rain Light Rain
2:35 PM 42.8 °F 37.0 °F 42.8 °F 100% 29.71 in 1.0 mi SE 10.4 mph 16.1 mph N/A   Overcast
2:55 PM 42.8 °F 36.6 °F 42.8 °F 100% 29.71 in 1.0 mi SE 11.5 mph 17.3 mph N/A   Overcast
3:15 PM 42.8 °F 38.0 °F 42.8 °F 100% 29.72 in 1.0 mi SE 8.1 mph - N/A   Overcast
3:35 PM 42.8 °F 37.5 °F 42.8 °F 100% 29.73 in 1.0 mi SE 9.2 mph - N/A   Overcast
3:55 PM 44.6 °F 39.7 °F 42.8 °F 93% 29.73 in 1.0 mi SE 9.2 mph - N/A   Overcast
4:15 PM 44.6 °F 40.7 °F 42.8 °F 93% 29.73 in 1.0 mi SE 6.9 mph - N/A   Overcast
4:35 PM 44.6 °F 40.2 °F 42.8 °F 93% 29.73 in 1.2 mi SE 8.1 mph - N/A   Drizzle
4:55 PM 44.6 °F 39.7 °F 42.8 °F 93% 29.73 in 1.2 mi SE 9.2 mph - N/A   Overcast
5:15 PM 44.6 °F 40.2 °F 42.8 °F 93% 29.73 in 1.2 mi SE 8.1 mph - N/A   Overcast
5:35 PM 44.6 °F 39.7 °F 42.8 °F 93% 29.73 in 1.0 mi SE 9.2 mph - N/A   Overcast
5:55 PM 44.6 °F 39.2 °F 42.8 °F 93% 29.73 in 1.0 mi SE 10.4 mph - N/A   Overcast
6:15 PM 44.6 °F 40.2 °F 44.6 °F 100% 29.72 in 1.0 mi SE 8.1 mph - N/A   Overcast
6:35 PM 46.4 °F 42.4 °F 44.6 °F 93% 29.72 in 1.2 mi SE 8.1 mph - N/A   Overcast
6:55 PM 46.4 °F 41.9 °F 44.6 °F 93% 29.71 in 1.0 mi SE 9.2 mph 17.3 mph N/A   Overcast
7:15 PM 48.2 °F - 46.4 °F 93% 29.70 in 0.8 mi SE 11.5 mph - N/A   Overcast
7:35 PM 48.2 °F - 46.4 °F 93% 29.69 in 0.8 mi SE 10.4 mph 16.1 mph N/A   Overcast
7:55 PM 48.2 °F - 46.4 °F 93% 29.68 in 1.0 mi SE 6.9 mph 17.3 mph N/A   Overcast
8:15 PM 50.0 °F - 46.4 °F 87% 29.68 in 1.2 mi SSE 9.2 mph - N/A   Overcast
8:35 PM 51.8 °F - 50.0 °F 94% 29.68 in 1.2 mi SE 11.5 mph 17.3 mph N/A   Overcast
8:55 PM 51.8 °F - 50.0 °F 94% 29.69 in 1.5 mi SSE 8.1 mph - N/A   Overcast
9:15 PM 51.8 °F - 50.0 °F 94% 29.69 in 1.5 mi SE 6.9 mph - N/A   Overcast
9:35 PM 51.8 °F - 50.0 °F 94% 29.68 in 1.8 mi SSE 4.6 mph - N/A   Overcast
10:35 PM 51.8 °F - 50.0 °F 94% 29.66 in 3.0 mi SSE 6.9 mph - N/A Rain , Thunderstorm Light Thunderstorms and Rain
10:55 PM 51.8 °F - 50.0 °F 94% 29.65 in 3.0 mi SE 4.6 mph - N/A   Overcast
11:15 PM 51.8 °F - 50.0 °F 94% 29.65 in 4.0 mi SE 5.8 mph - N/A   Overcast
11:35 PM 51.8 °F - 50.0 °F 94% 29.64 in 3.0 mi SE 8.1 mph - N/A Rain Light Rain
11:55 PM 55.4 °F - 53.6 °F 94% 29.64 in 7.0 mi South 9.2 mph - N/A Rain Rain